Location: El Guaico
(5.5876°N, 75.6192°W)
Time: 20:33:14
(UTC+00:00)

Daily predictions for brighter satellites

Satellite Brightness Start Highest point End
(mag) Time Altitude Azimuth Time Altitude Azimuth Time Altitude Azimuth
Exosat Rocket 3.7 23:32:24 10° N 23:37:15 56° ENE 23:42:39 10° SSE
Cosmos 2227 Rocket 2.4 23:35:12 10° N 23:40:43 56° ENE 23:46:13 10° SSE
FUSE 4.2 23:36:28 10° WNW 23:41:48 68° SSW 23:47:06 10° SE
Cosmos 2098 Rocket 4.3 23:35:02 10° SSE 23:41:52 52° E 23:47:39 10° NNE
Meteor 2-10 4.3 23:39:29 10° N 23:45:03 66° E 23:50:43 10° SSE
Cosmos 2219 3.5 23:44:56 10° NNW 23:50:30 71° WSW 23:56:06 10° S
GPS 2-17 Rocket1 3.6 23:46:53 10° W 23:51:14 48° SSW 23:55:38 10° SE
SL-16 R/B 2.3 23:47:53 10° SSW 23:53:33 82° WNW 23:59:12 10° NNE
Cosmos 1898 Rocket 4.4 23:50:28 10° NNE 23:54:51 28° ENE 23:59:10 10° SE
